Time,TemperatureF,DewpointF,PressureIn,WindDirection,WindDirectionDegrees,WindSpeedMPH,WindSpeedGustMPH,Humidity,HourlyPrecipIn,Conditions,Clouds,dailyrainin,SoftwareType,DateUTC
2013-03-19 00:04:00,21.5,6.1,30.11,East,79,2.0,10.0,51,0.00,OVC,OVC,0.00,WeatherDisplay:10.37,2013-03-19 04:04:00,
2013-03-19 00:09:00,21.5,6.6,30.11,ENE,73,1.0,7.0,52,0.00,OVC,OVC,0.00,WeatherDisplay:10.37,2013-03-19 04:09:00,
2013-03-19 00:14:00,21.7,5.9,30.11,ENE,71,2.0,6.0,50,0.00,OVC,OVC,0.00,WeatherDisplay:10.37,2013-03-19 04:14:00,
2013-03-19 00:19:00,21.7,5.9,30.11,ENE,73,3.0,10.0,50,0.00,OVC,OVC,0.00,WeatherDisplay:10.37,2013-03-19 04:19:00,
2013-03-19 00:24:00,21.8,6.4,30.10,East,90,3.0,13.0,51,0.00,OVC,OVC,0.00,WeatherDisplay:10.37,2013-03-19 04:24:00,
2013-03-19 00:29:00,21.9,6.1,30.10,East,82,2.0,9.0,50,0.00,OVC,OVC,0.00,WeatherDisplay:10.37,2013-03-19 04:29:00,
2013-03-19 00:34:00,21.9,6.1,30.09,ENE,77,2.0,7.0,50,0.00,OVC,OVC,0.00,WeatherDisplay:10.37,2013-03-19 04:34:00,
2013-03-19 00:39:00,21.9,6.9,30.09,ENE,59,1.0,5.0,52,0.00,OVC,OVC,0.00,WeatherDisplay:10.37,2013-03-19 04:39:00,
2013-03-19 00:49:00,21.8,6.9,30.07,ENE,74,2.0,8.0,52,0.00,OVC,OVC,0.00,WeatherDisplay:10.37,2013-03-19 04:49:00,
2013-03-19 00:54:00,21.8,6.0,30.07,ENE,66,6.0,13.0,50,0.00,OVC,OVC,0.00,WeatherDisplay:10.37,2013-03-19 04:54:00,
2013-03-19 00:59:00,21.9,6.1,30.06,ENE,59,2.0,10.0,50,0.00,OVC,OVC,0.00,WeatherDisplay:10.37,2013-03-19 04:59:00,
2013-03-19 01:04:00,21.8,6.0,30.06,ENE,68,2.0,12.0,50,0.00,OVC,OVC,0.00,WeatherDisplay:10.37,2013-03-19 05:04:00,
2013-03-19 01:09:00,21.8,6.4,30.05,ENE,70,2.0,8.0,51,0.00,OVC,OVC,0.00,WeatherDisplay:10.37,2013-03-19 05:09:00,
2013-03-19 01:14:00,21.9,6.9,30.05,ENE,62,3.0,9.0,52,0.00,OVC,OVC,0.00,WeatherDisplay:10.37,2013-03-19 05:14:00,
2013-03-19 01:19:00,22.0,6.6,30.05,ENE,63,3.0,10.0,51,0.00,OVC,OVC,0.00,WeatherDisplay:10.37,2013-03-19 05:19:00,
2013-03-19 01:24:00,22.0,6.6,30.05,ENE,63,2.0,10.0,51,0.00,OVC,OVC,0.00,WeatherDisplay:10.37,2013-03-19 05:24:00,
2013-03-19 01:29:00,22.1,7.1,30.05,ENE,62,1.0,12.0,52,0.00,OVC,OVC,0.00,WeatherDisplay:10.37,2013-03-19 05:29:00,
2013-03-19 01:34:00,22.1,6.7,30.04,East,84,3.0,9.0,51,0.00,OVC,OVC,0.00,WeatherDisplay:10.37,2013-03-19 05:34:00,
2013-03-19 01:39:00,22.1,7.1,30.04,East,82,2.0,10.0,52,0.00,OVC,OVC,0.00,WeatherDisplay:10.37,2013-03-19 05:39:00,
2013-03-19 01:44:00,22.2,6.8,30.04,East,87,3.0,13.0,51,0.00,OVC,OVC,0.00,WeatherDisplay:10.37,2013-03-19 05:44:00,
2013-03-19 01:49:00,22.2,7.2,30.05,East,85,2.0,9.0,52,0.00,OVC,OVC,0.00,WeatherDisplay:10.37,2013-03-19 05:49:00,
2013-03-19 01:54:00,22.1,7.1,30.05,ENE,65,2.0,12.0,52,0.00,OVC,OVC,0.00,WeatherDisplay:10.37,2013-03-19 05:54:00,
2013-03-19 01:59:00,22.1,7.1,30.05,ENE,66,2.0,9.0,52,0.00,OVC,OVC,0.00,WeatherDisplay:10.37,2013-03-19 05:59:00,
2013-03-19 02:04:00,22.0,7.5,30.05,East,83,2.0,13.0,53,0.00,OVC,OVC,0.00,WeatherDisplay:10.37,2013-03-19 06:04:00,
2013-03-19 02:09:00,22.0,7.5,30.05,East,91,0.0,10.0,53,0.00,OVC,OVC,0.00,WeatherDisplay:10.37,2013-03-19 06:09:00,
2013-03-19 02:14:00,21.9,7.4,30.05,ENE,77,1.0,7.0,53,0.00,-SN,OVC,0.00,WeatherDisplay:10.37,2013-03-19 06:14:00,
2013-03-19 02:19:00,21.9,7.4,30.05,NE,50,2.0,12.0,53,0.00,-SN,OVC,0.00,WeatherDisplay:10.37,2013-03-19 06:19:00,
2013-03-19 02:24:00,21.9,8.2,30.05,ENE,71,1.0,6.0,55,0.00,-SN,OVC,0.00,WeatherDisplay:10.37,2013-03-19 06:24:00,
2013-03-19 02:29:00,21.9,7.4,30.04,ENE,68,5.0,14.0,53,0.00,-SN,OVC,0.00,WeatherDisplay:10.37,2013-03-19 06:29:00,
2013-03-19 02:34:00,21.9,7.8,30.03,ENE,77,2.0,8.0,54,0.00,-SN,OVC,0.00,WeatherDisplay:10.37,2013-03-19 06:34:00,
2013-03-19 02:39:00,21.7,8.4,30.03,East,82,2.0,7.0,56,0.00,-SN,OVC,0.00,WeatherDisplay:10.37,2013-03-19 06:39:00,
2013-03-19 02:44:00,21.6,8.3,30.02,ENE,60,3.0,9.0,56,0.00,-SN,OVC,0.00,WeatherDisplay:10.37,2013-03-19 06:44:00,
2013-03-19 02:49:00,21.4,9.7,30.02,NE,54,1.0,7.0,60,0.00,-SN,OVC,0.00,WeatherDisplay:10.37,2013-03-19 06:49:00,
2013-03-19 02:54:00,21.0,10.7,30.02,ENE,64,2.0,8.0,64,0.00,-SN,OVC,0.00,WeatherDisplay:10.37,2013-03-19 06:54:00,
2013-03-19 02:59:00,20.8,11.2,30.01,ESE,104,5.0,12.0,66,0.00,-SN,OVC,0.00,WeatherDisplay:10.37,2013-03-19 06:59:00,
2013-03-19 03:04:00,20.6,12.0,30.00,ENE,72,1.0,9.0,69,0.00,-SN,OVC,0.00,WeatherDisplay:10.37,2013-03-19 07:04:00,
2013-03-19 03:09:00,20.3,12.1,30.00,ENE,65,5.0,10.0,70,0.00,-SN,OVC,0.00,WeatherDisplay:10.37,2013-03-19 07:09:00,
2013-03-19 03:14:00,20.2,12.9,30.00,ENE,72,3.0,12.0,73,0.00,-SN,OVC,0.00,WeatherDisplay:10.37,2013-03-19 07:14:00,
2013-03-19 03:19:00,19.8,13.5,30.00,ENE,69,2.0,7.0,76,0.00,-SN,OVC,0.00,WeatherDisplay:10.37,2013-03-19 07:19:00,
2013-03-19 03:24:00,19.6,14.1,30.00,East,81,3.0,9.0,79,0.00,-SN,OVC,0.00,WeatherDisplay:10.37,2013-03-19 07:24:00,
2013-03-19 03:29:00,19.3,14.4,29.99,East,81,2.0,8.0,81,0.00,-SN,OVC,0.00,WeatherDisplay:10.37,2013-03-19 07:29:00,
2013-03-19 03:39:00,19.2,15.4,29.99,ENE,62,3.0,12.0,85,0.00,-SN,OVC,0.01,WeatherDisplay:10.37,2013-03-19 07:39:00,
2013-03-19 03:44:00,19.1,15.6,29.99,ENE,71,3.0,8.0,86,0.01,-SN,OVC,0.02,WeatherDisplay:10.37,2013-03-19 07:44:00,
2013-03-19 03:49:00,19.0,15.5,29.99,ENE,71,2.0,10.0,86,0.00,-SN,OVC,0.02,WeatherDisplay:10.37,2013-03-19 07:49:00,
2013-03-19 03:54:00,18.9,15.4,29.98,ENE,65,1.0,7.0,86,0.01,-SN,OVC,0.02,WeatherDisplay:10.37,2013-03-19 07:54:00,
2013-03-19 03:59:00,18.8,15.6,29.98,East,79,3.0,9.0,87,0.01,-SN,OVC,0.03,WeatherDisplay:10.37,2013-03-19 07:59:00,
2013-03-19 04:04:00,18.8,15.8,29.98,ENE,77,3.0,9.0,88,0.00,-SN,OVC,0.03,WeatherDisplay:10.37,2013-03-19 08:04:00,
2013-03-19 04:09:00,18.8,15.8,29.98,ENE,57,1.0,5.0,88,0.01,-SN,OVC,0.04,WeatherDisplay:10.37,2013-03-19 08:09:00,
2013-03-19 04:14:00,18.8,15.8,29.97,ENE,58,1.0,5.0,88,0.01,-SN,OVC,0.05,WeatherDisplay:10.37,2013-03-19 08:14:00,
2013-03-19 04:19:00,18.8,15.9,29.97,East,80,3.0,10.0,88,0.01,-SN,OVC,0.05,WeatherDisplay:10.37,2013-03-19 08:19:00,
2013-03-19 04:24:00,18.8,15.8,29.96,East,88,1.0,10.0,88,0.00,-SN,OVC,0.05,WeatherDisplay:10.37,2013-03-19 08:24:00,
2013-03-19 04:29:00,18.8,15.8,29.96,ENE,63,1.0,13.0,88,0.01,-SN,OVC,0.06,WeatherDisplay:10.37,2013-03-19 08:29:00,
2013-03-19 04:34:00,18.7,15.7,29.95,NE,46,3.0,7.0,88,0.01,-SN,OVC,0.07,WeatherDisplay:10.37,2013-03-19 08:34:00,
2013-03-19 04:39:00,18.7,15.7,29.95,NE,53,2.0,6.0,88,0.00,-SN,OVC,0.07,WeatherDisplay:10.37,2013-03-19 08:39:00,
2013-03-19 04:44:00,18.7,15.8,29.95,ENE,62,3.0,10.0,88,0.01,-SN,OVC,0.08,WeatherDisplay:10.37,2013-03-19 08:44:00,
2013-03-19 04:49:00,18.8,16.1,29.95,ENE,63,3.0,7.0,89,0.00,-SN,OVC,0.08,WeatherDisplay:10.37,2013-03-19 08:49:00,
2013-03-19 04:54:00,18.9,16.2,29.95,ENE,69,2.0,7.0,89,0.01,-SN,OVC,0.09,WeatherDisplay:10.37,2013-03-19 08:54:00,
2013-03-19 04:59:00,18.9,16.2,29.94,ENE,70,1.0,4.0,89,0.01,-SN,OVC,0.09,WeatherDisplay:10.37,2013-03-19 08:59:00,
2013-03-19 05:04:00,19.0,16.3,29.94,ENE,74,1.0,16.0,89,0.00,-SN,OVC,0.10,WeatherDisplay:10.37,2013-03-19 09:04:00,
2013-03-19 05:09:00,19.0,16.3,29.94,ENE,65,3.0,10.0,89,0.01,-SN,OVC,0.10,WeatherDisplay:10.37,2013-03-19 09:09:00,
2013-03-19 05:14:00,19.1,16.4,29.94,ENE,60,2.0,8.0,89,0.01,-SN,OVC,0.11,WeatherDisplay:10.37,2013-03-19 09:14:00,
2013-03-19 05:19:00,19.2,16.5,29.94,ENE,77,2.0,8.0,89,0.01,-SN,OVC,0.12,WeatherDisplay:10.37,2013-03-19 09:19:00,
2013-03-19 05:24:00,19.3,16.6,29.94,ENE,67,2.0,5.0,89,0.01,-SN,OVC,0.13,WeatherDisplay:10.37,2013-03-19 09:24:00,
2013-03-19 05:29:00,19.4,17.0,29.94,ENE,72,3.0,20.0,90,0.00,-SN,OVC,0.13,WeatherDisplay:10.37,2013-03-19 09:29:00,
2013-03-19 05:34:00,19.6,17.1,29.94,East,79,2.0,20.0,90,0.01,-SN,OVC,0.13,WeatherDisplay:10.37,2013-03-19 09:34:00,
2013-03-19 05:39:00,19.8,17.3,29.94,ENE,69,3.0,12.0,90,0.01,-SN,OVC,0.14,WeatherDisplay:10.37,2013-03-19 09:39:00,
2013-03-19 05:44:00,19.9,17.4,29.93,ENE,73,2.0,10.0,90,0.01,-SN,OVC,0.15,WeatherDisplay:10.37,2013-03-19 09:44:00,
2013-03-19 05:49:00,19.9,17.5,29.93,ENE,70,2.0,10.0,90,0.01,-SN,OVC,0.16,WeatherDisplay:10.37,2013-03-19 09:49:00,
2013-03-19 05:54:00,20.0,17.5,29.93,ENE,58,3.0,10.0,90,0.01,-SN,OVC,0.17,WeatherDisplay:10.37,2013-03-19 09:54:00,
2013-03-19 05:59:00,20.1,17.6,29.92,East,84,3.0,10.0,90,0.00,-SN,OVC,0.17,WeatherDisplay:10.37,2013-03-19 09:59:00,
2013-03-19 06:04:00,20.2,17.7,29.92,East,97,2.0,8.0,90,0.01,-SN,OVC,0.17,WeatherDisplay:10.37,2013-03-19 10:04:00,
2013-03-19 06:09:00,20.2,17.7,29.92,East,85,3.0,13.0,90,0.01,-SN,OVC,0.18,WeatherDisplay:10.37,2013-03-19 10:09:00,
2013-03-19 06:14:00,20.2,17.8,29.92,ENE,75,1.0,12.0,90,0.01,-SN,OVC,0.19,WeatherDisplay:10.37,2013-03-19 10:14:00,
2013-03-19 06:19:00,20.2,17.8,29.92,East,80,2.0,12.0,90,0.01,-SN,OVC,0.20,WeatherDisplay:10.37,2013-03-19 10:19:00,
2013-03-19 06:24:00,20.3,17.8,29.92,East,80,2.0,12.0,90,0.01,-SN,OVC,0.20,WeatherDisplay:10.37,2013-03-19 10:24:00,
2013-03-19 06:29:00,20.4,18.2,29.92,ENE,74,2.0,8.0,91,0.01,-SN,OVC,0.21,WeatherDisplay:10.37,2013-03-19 10:29:00,
2013-03-19 06:34:00,20.5,18.3,29.92,ENE,63,3.0,8.0,91,0.01,-SN,OVC,0.22,WeatherDisplay:10.37,2013-03-19 10:34:00,
2013-03-19 06:39:00,20.6,18.4,29.92,ENE,73,3.0,9.0,91,0.01,-SN,OVC,0.23,WeatherDisplay:10.37,2013-03-19 10:39:00,
2013-03-19 06:44:00,20.6,18.4,29.92,East,81,3.0,7.0,91,0.01,-SN,OVC,0.24,WeatherDisplay:10.37,2013-03-19 10:44:00,
2013-03-19 06:49:00,20.6,18.4,29.91,East,81,3.0,10.0,91,0.01,-SN,OVC,0.24,WeatherDisplay:10.37,2013-03-19 10:49:00,
2013-03-19 06:54:00,20.7,18.5,29.91,East,81,5.0,12.0,91,0.00,-SN,OVC,0.24,WeatherDisplay:10.37,2013-03-19 10:54:00,
2013-03-19 06:59:00,20.8,18.6,29.91,ENE,70,1.0,9.0,91,0.01,-SN,OVC,0.25,WeatherDisplay:10.37,2013-03-19 10:59:00,
2013-03-19 07:04:00,20.8,18.6,29.91,ENE,71,3.0,9.0,91,0.01,-SN,OVC,0.26,WeatherDisplay:10.37,2013-03-19 11:04:00,
2013-03-19 07:09:00,20.9,18.7,29.91,East,80,3.0,9.0,91,0.01,-SN,OVC,0.27,WeatherDisplay:10.37,2013-03-19 11:09:00,
2013-03-19 07:14:00,21.0,18.8,29.91,ENE,62,2.0,9.0,91,0.00,-SN,OVC,0.27,WeatherDisplay:10.37,2013-03-19 11:14:00,
2013-03-19 07:19:00,21.1,18.9,29.91,NE,52,3.0,12.0,91,0.01,-SN,OVC,0.28,WeatherDisplay:10.37,2013-03-19 11:19:00,
2013-03-19 07:24:00,21.2,19.0,29.91,ENE,69,3.0,9.0,91,0.00,-SN,OVC,0.28,WeatherDisplay:10.37,2013-03-19 11:24:00,
2013-03-19 07:29:00,21.2,19.0,29.91,ENE,77,2.0,8.0,91,0.00,-SN,OVC,0.28,WeatherDisplay:10.37,2013-03-19 11:29:00,
2013-03-19 07:34:00,21.3,19.1,29.91,ENE,72,2.0,7.0,91,0.01,-SN,OVC,0.28,WeatherDisplay:10.37,2013-03-19 11:34:00,
2013-03-19 07:39:00,21.4,19.2,29.90,ENE,72,3.0,7.0,91,0.00,-SN,OVC,0.28,WeatherDisplay:10.37,2013-03-19 11:39:00,
2013-03-19 07:44:00,21.5,19.3,29.90,ENE,69,2.0,13.0,91,0.01,-SN,OVC,0.29,WeatherDisplay:10.37,2013-03-19 11:44:00,
2013-03-19 07:54:00,21.5,19.3,29.90,ENE,58,5.0,7.0,91,0.00,-SN,OVC,0.29,WeatherDisplay:10.37,2013-03-19 11:54:00,
2013-03-19 07:59:00,21.5,19.3,29.90,ENE,64,1.0,9.0,91,0.01,-SN,OVC,0.30,WeatherDisplay:10.37,2013-03-19 11:59:00,
2013-03-19 08:04:00,21.5,19.3,29.90,ENE,77,2.0,9.0,91,0.01,-SN,OVC,0.31,WeatherDisplay:10.37,2013-03-19 12:04:00,
2013-03-19 08:09:00,21.6,19.4,29.90,East,83,3.0,9.0,91,0.00,-SN,OVC,0.31,WeatherDisplay:10.37,2013-03-19 12:09:00,
2013-03-19 08:14:00,21.7,19.5,29.89,ENE,70,2.0,11.0,91,0.00,,OVC,0.31,WeatherDisplay:10.37,2013-03-19 12:14:00,
2013-03-19 08:19:00,22.0,19.8,29.89,NE,48,2.0,9.0,91,0.01,RA,OVC,0.31,WeatherDisplay:10.37,2013-03-19 12:19:00,
2013-03-19 08:24:00,22.3,20.1,29.89,NE,49,2.0,10.0,91,0.00,RA,OVC,0.31,WeatherDisplay:10.37,2013-03-19 12:24:00,
2013-03-19 08:29:00,22.5,20.3,29.89,ENE,62,2.0,8.0,91,0.00,,OVC,0.32,WeatherDisplay:10.37,2013-03-19 12:29:00,
2013-03-19 08:34:00,22.6,20.4,29.89,East,98,5.0,8.0,91,0.01,RA,OVC,0.32,WeatherDisplay:10.37,2013-03-19 12:34:00,
2013-03-19 08:39:00,22.5,20.3,29.89,East,89,2.0,5.0,91,0.00,RA,OVC,0.32,WeatherDisplay:10.37,2013-03-19 12:39:00,
2013-03-19 08:44:00,22.5,20.3,29.89,ENE,77,1.0,8.0,91,0.01,RA,OVC,0.33,WeatherDisplay:10.37,2013-03-19 12:44:00,
2013-03-19 08:49:00,22.5,20.3,29.89,ENE,77,2.0,4.0,91,0.00,RA,OVC,0.33,WeatherDisplay:10.37,2013-03-19 12:49:00,
2013-03-19 08:54:00,22.4,20.2,29.89,East,98,2.0,9.0,91,0.01,-SN,OVC,0.34,WeatherDisplay:10.37,2013-03-19 12:54:00,
2013-03-19 08:59:00,22.4,20.2,29.89,East,92,2.0,7.0,91,0.00,-SN,OVC,0.34,WeatherDisplay:10.37,2013-03-19 12:59:00,
2013-03-19 09:04:00,22.4,20.2,29.89,ENE,70,2.0,8.0,91,0.01,-SN,OVC,0.35,WeatherDisplay:10.37,2013-03-19 13:04:00,
2013-03-19 09:09:00,22.5,20.3,29.89,ENE,68,2.0,5.0,91,0.00,-SN,OVC,0.35,WeatherDisplay:10.37,2013-03-19 13:09:00,
2013-03-19 09:19:00,22.7,20.5,29.88,ENE,72,3.0,7.0,91,0.00,-SN,OVC,0.35,WeatherDisplay:10.37,2013-03-19 13:19:00,
2013-03-19 09:24:00,22.9,20.7,29.89,ENE,70,3.0,10.0,91,0.00,-SN,OVC,0.35,WeatherDisplay:10.37,2013-03-19 13:24:00,
2013-03-19 09:29:00,23.0,20.8,29.89,ENE,71,2.0,10.0,91,0.01,-SN,OVC,0.36,WeatherDisplay:10.37,2013-03-19 13:29:00,
2013-03-19 09:34:00,23.1,20.9,29.88,ENE,70,5.0,15.0,91,0.01,-SN,OVC,0.37,WeatherDisplay:10.37,2013-03-19 13:34:00,
2013-03-19 09:44:00,23.3,21.0,29.88,ENE,72,3.0,14.0,91,0.01,RA,OVC,0.39,WeatherDisplay:10.37,2013-03-19 13:44:00,
2013-03-19 09:49:00,23.3,21.3,29.88,ENE,63,3.0,7.0,92,0.01,RA,OVC,0.39,WeatherDisplay:10.37,2013-03-19 13:49:00,
2013-03-19 09:54:00,23.3,21.3,29.88,ENE,66,3.0,14.0,92,0.01,RA,OVC,0.40,WeatherDisplay:10.37,2013-03-19 13:54:00,
2013-03-19 09:59:00,23.3,21.3,29.88,ENE,73,2.0,8.0,92,0.01,RA,OVC,0.41,WeatherDisplay:10.37,2013-03-19 13:59:00,
2013-03-19 10:04:00,23.4,21.4,29.88,ENE,76,1.0,9.0,92,0.01,RA,OVC,0.42,WeatherDisplay:10.37,2013-03-19 14:04:00,
2013-03-19 10:09:00,23.4,21.2,29.88,ENE,65,5.0,12.0,91,0.01,RA,OVC,0.43,WeatherDisplay:10.37,2013-03-19 14:09:00,
2013-03-19 10:14:00,23.4,21.2,29.88,ENE,58,2.0,10.0,91,0.01,RA,OVC,0.43,WeatherDisplay:10.37,2013-03-19 14:14:00,
2013-03-19 10:19:00,23.3,21.1,29.88,East,93,2.0,11.0,91,0.01,RA,OVC,0.44,WeatherDisplay:10.37,2013-03-19 14:19:00,
2013-03-19 10:24:00,23.2,21.0,29.87,East,80,5.0,9.0,91,0.01,RA,OVC,0.45,WeatherDisplay:10.37,2013-03-19 14:24:00,
2013-03-19 10:29:00,23.2,20.9,29.87,ENE,70,5.0,9.0,91,0.01,RA,OVC,0.46,WeatherDisplay:10.37,2013-03-19 14:29:00,
2013-03-19 10:34:00,23.1,20.9,29.87,East,80,3.0,10.0,91,0.01,RA,OVC,0.47,WeatherDisplay:10.37,2013-03-19 14:34:00,
2013-03-19 10:39:00,23.2,20.7,29.86,East,79,2.0,10.0,90,0.00,RA,OVC,0.47,WeatherDisplay:10.37,2013-03-19 14:39:00,
2013-03-19 10:44:00,23.2,20.7,29.86,ENE,64,2.0,14.0,90,0.01,RA,OVC,0.47,WeatherDisplay:10.37,2013-03-19 14:44:00,
2013-03-19 10:49:00,23.3,20.8,29.86,East,82,2.0,9.0,90,0.01,RA,OVC,0.48,WeatherDisplay:10.37,2013-03-19 14:49:00,
2013-03-19 10:54:00,23.3,20.8,29.86,East,83,5.0,9.0,90,0.00,RA,OVC,0.48,WeatherDisplay:10.37,2013-03-19 14:54:00,
2013-03-19 10:59:00,23.4,20.9,29.86,East,79,1.0,9.0,90,0.00,,OVC,0.48,WeatherDisplay:10.37,2013-03-19 14:59:00,
2013-03-19 11:04:00,23.4,20.9,29.86,ESE,113,2.0,8.0,90,0.01,RA,OVC,0.49,WeatherDisplay:10.37,2013-03-19 15:04:00,
2013-03-19 11:09:00,23.4,20.6,29.86,ESE,102,3.0,8.0,89,0.00,RA,OVC,0.49,WeatherDisplay:10.37,2013-03-19 15:09:00,
2013-03-19 11:14:00,23.4,20.9,29.86,East,92,5.0,9.0,90,0.01,RA,OVC,0.50,WeatherDisplay:10.37,2013-03-19 15:14:00,
2013-03-19 11:19:00,23.6,21.1,29.86,East,99,3.0,13.0,90,0.00,RA,OVC,0.50,WeatherDisplay:10.37,2013-03-19 15:19:00,
2013-03-19 11:24:00,23.7,21.0,29.86,East,93,2.0,10.0,89,0.00,,OVC,0.50,WeatherDisplay:10.37,2013-03-19 15:24:00,
2013-03-19 11:29:00,23.9,21.4,29.86,East,82,1.0,10.0,90,0.00,,OVC,0.50,WeatherDisplay:10.37,2013-03-19 15:29:00,
2013-03-19 11:34:00,23.9,21.1,29.85,East,83,3.0,6.0,89,0.01,RA,OVC,0.50,WeatherDisplay:10.37,2013-03-19 15:34:00,
2013-03-19 11:39:00,23.9,21.4,29.85,East,86,3.0,10.0,90,0.01,RA,OVC,0.51,WeatherDisplay:10.37,2013-03-19 15:39:00,
2013-03-19 11:44:00,23.9,21.4,29.85,East,88,3.0,10.0,90,0.00,RA,OVC,0.51,WeatherDisplay:10.37,2013-03-19 15:44:00,
2013-03-19 11:49:00,24.0,21.5,29.85,ENE,67,2.0,9.0,90,0.00,,OVC,0.51,WeatherDisplay:10.37,2013-03-19 15:49:00,
2013-03-19 11:54:00,24.1,21.6,29.85,NE,50,3.0,7.0,90,0.01,RA,OVC,0.52,WeatherDisplay:10.37,2013-03-19 15:54:00,
2013-03-19 11:59:00,24.0,21.5,29.85,ENE,74,6.0,13.0,90,0.00,RA,OVC,0.52,WeatherDisplay:10.37,2013-03-19 15:59:00,
2013-03-19 12:04:00,24.0,21.5,29.84,East,83,3.0,12.0,90,0.01,RA,OVC,0.53,WeatherDisplay:10.37,2013-03-19 16:04:00,
2013-03-19 12:09:00,24.2,21.7,29.85,ENE,70,1.0,9.0,90,0.00,RA,OVC,0.53,WeatherDisplay:10.37,2013-03-19 16:09:00,
2013-03-19 12:14:00,24.4,21.9,29.85,ENE,66,5.0,10.0,90,0.01,RA,OVC,0.54,WeatherDisplay:10.37,2013-03-19 16:14:00,
2013-03-19 12:19:00,24.4,21.6,29.84,East,83,5.0,12.0,89,0.00,RA,OVC,0.54,WeatherDisplay:10.37,2013-03-19 16:19:00,
2013-03-19 12:24:00,24.5,22.0,29.85,ENE,68,2.0,7.0,90,0.00,,OVC,0.54,WeatherDisplay:10.37,2013-03-19 16:24:00,
2013-03-19 12:34:00,24.6,22.1,29.83,East,83,1.0,7.0,90,0.00,RA,OVC,0.54,WeatherDisplay:10.37,2013-03-19 16:34:00,
2013-03-19 12:39:00,24.8,22.0,29.83,East,96,3.0,8.0,89,0.02,RA,OVC,0.56,WeatherDisplay:10.37,2013-03-19 16:39:00,
2013-03-19 12:44:00,24.8,22.0,29.83,East,81,3.0,7.0,89,0.01,RA,OVC,0.57,WeatherDisplay:10.37,2013-03-19 16:44:00,
2013-03-19 12:49:00,24.8,22.0,29.83,ENE,70,3.0,8.0,89,0.01,RA,OVC,0.57,WeatherDisplay:10.37,2013-03-19 16:49:00,
2013-03-19 12:54:00,24.8,22.0,29.83,ENE,66,2.0,7.0,89,0.00,RA,OVC,0.57,WeatherDisplay:10.37,2013-03-19 16:54:00,
2013-03-19 13:04:00,25.0,22.2,29.83,ENE,75,2.0,7.0,89,0.00,RA,OVC,0.58,WeatherDisplay:10.37,2013-03-19 17:04:00,
2013-03-19 13:09:00,24.9,21.9,29.83,ENE,65,5.0,14.0,88,0.00,,OVC,0.58,WeatherDisplay:10.37,2013-03-19 17:09:00,
2013-03-19 13:14:00,24.8,22.0,29.83,ENE,65,2.0,12.0,89,0.00,,OVC,0.58,WeatherDisplay:10.37,2013-03-19 17:14:00,
2013-03-19 13:19:00,24.7,21.9,29.82,East,79,2.0,13.0,89,0.00,,OVC,0.58,WeatherDisplay:10.37,2013-03-19 17:19:00,
2013-03-19 13:24:00,24.7,21.9,29.82,ENE,66,2.0,10.0,89,0.00,,OVC,0.58,WeatherDisplay:10.37,2013-03-19 17:24:00,
2013-03-19 13:29:00,24.8,21.8,29.81,ENE,60,6.0,13.0,88,0.00,,OVC,0.58,WeatherDisplay:10.37,2013-03-19 17:29:00,
2013-03-19 13:34:00,24.8,22.0,29.82,East,86,1.0,7.0,89,0.00,,OVC,0.58,WeatherDisplay:10.37,2013-03-19 17:34:00,
2013-03-19 13:39:00,24.8,22.0,29.82,ENE,68,2.0,8.0,89,0.00,,OVC,0.58,WeatherDisplay:10.37,2013-03-19 17:39:00,
2013-03-19 13:44:00,24.8,21.8,29.81,ENE,75,3.0,10.0,88,0.00,-SN,OVC,0.58,WeatherDisplay:10.37,2013-03-19 17:44:00,
2013-03-19 13:49:00,24.8,21.8,29.81,ENE,74,1.0,7.0,88,0.00,-SN,OVC,0.58,WeatherDisplay:10.37,2013-03-19 17:49:00,
2013-03-19 13:54:00,24.8,22.0,29.80,ENE,68,3.0,10.0,89,0.00,-SN,OVC,0.58,WeatherDisplay:10.37,2013-03-19 17:54:00,
2013-03-19 13:59:00,24.8,22.0,29.80,NE,55,2.0,8.0,89,0.01,-SN,OVC,0.59,WeatherDisplay:10.37,2013-03-19 17:59:00,
2013-03-19 14:04:00,24.9,22.1,29.80,ENE,74,2.0,7.0,89,0.00,-SN,OVC,0.59,WeatherDisplay:10.37,2013-03-19 18:04:00,
2013-03-19 14:14:00,24.7,21.9,29.79,East,88,3.0,10.0,89,0.00,-SN,OVC,0.59,WeatherDisplay:10.37,2013-03-19 18:14:00,
2013-03-19 14:19:00,24.7,22.2,29.79,ENE,74,3.0,9.0,90,0.00,-SN,OVC,0.59,WeatherDisplay:10.37,2013-03-19 18:19:00,
2013-03-19 14:24:00,24.8,22.3,29.78,ENE,76,1.0,9.0,90,0.00,-SN,OVC,0.59,WeatherDisplay:10.37,2013-03-19 18:24:00,
2013-03-19 14:29:00,24.8,22.0,29.78,ENE,72,2.0,7.0,89,0.00,-SN,OVC,0.59,WeatherDisplay:10.37,2013-03-19 18:29:00,
2013-03-19 14:34:00,24.7,21.9,29.78,ENE,67,2.0,9.0,89,0.00,,OVC,0.59,WeatherDisplay:10.37,2013-03-19 18:34:00,
2013-03-19 14:39:00,24.8,22.0,29.78,ENE,58,3.0,8.0,89,0.00,,OVC,0.59,WeatherDisplay:10.37,2013-03-19 18:39:00,
2013-03-19 14:49:00,24.8,22.1,29.77,ENE,75,2.0,8.0,89,0.00,,OVC,0.59,WeatherDisplay:10.37,2013-03-19 18:49:00,
2013-03-19 14:59:00,24.9,22.2,29.78,ENE,57,1.0,10.0,89,0.00,RA,OVC,0.60,WeatherDisplay:10.37,2013-03-19 18:59:00,
2013-03-19 15:04:00,24.8,22.0,29.78,NE,50,3.0,10.0,89,0.00,,OVC,0.60,WeatherDisplay:10.37,2013-03-19 19:04:00,
2013-03-19 15:09:00,24.7,21.9,29.78,ENE,74,3.0,7.0,89,0.00,,OVC,0.60,WeatherDisplay:10.37,2013-03-19 19:09:00,
2013-03-19 15:14:00,24.6,21.8,29.77,East,87,2.0,8.0,89,0.00,-SN,OVC,0.60,WeatherDisplay:10.37,2013-03-19 19:14:00,
2013-03-19 15:19:00,24.7,22.2,29.77,East,89,3.0,9.0,90,0.00,-SN,OVC,0.60,WeatherDisplay:10.37,2013-03-19 19:19:00,
2013-03-19 15:29:00,24.8,22.3,29.77,ENE,60,2.0,4.0,90,0.01,-SN,OVC,0.61,WeatherDisplay:10.37,2013-03-19 19:29:00,
2013-03-19 15:34:00,24.8,22.3,29.76,ENE,64,2.0,9.0,90,0.00,-SN,OVC,0.61,WeatherDisplay:10.37,2013-03-19 19:34:00,
2013-03-19 15:39:00,24.8,22.3,29.76,East,81,3.0,9.0,90,0.00,-SN,OVC,0.61,WeatherDisplay:10.37,2013-03-19 19:39:00,
2013-03-19 15:49:00,24.9,22.6,29.77,ENE,70,2.0,10.0,91,0.00,-SN,OVC,0.61,WeatherDisplay:10.37,2013-03-19 19:49:00,
2013-03-19 15:54:00,25.0,22.8,29.77,East,94,2.0,9.0,91,0.00,-SN,OVC,0.61,WeatherDisplay:10.37,2013-03-19 19:54:00,
2013-03-19 15:59:00,25.1,22.8,29.77,ENE,77,3.0,8.0,91,0.00,-SN,OVC,0.61,WeatherDisplay:10.37,2013-03-19 19:59:00,
2013-03-19 16:09:00,25.2,23.2,29.77,ENE,73,2.0,9.0,92,0.00,-SN,OVC,0.61,WeatherDisplay:10.37,2013-03-19 20:09:00,
2013-03-19 16:14:00,25.4,23.4,29.76,ENE,70,1.0,7.0,92,0.00,-SN,OVC,0.61,WeatherDisplay:10.37,2013-03-19 20:14:00,
2013-03-19 16:19:00,25.5,23.2,29.76,East,88,2.0,8.0,91,0.00,-SN,OVC,0.61,WeatherDisplay:10.37,2013-03-19 20:19:00,
2013-03-19 16:29:00,25.6,23.3,29.76,ENE,61,2.0,6.0,91,0.01,-SN,OVC,0.61,WeatherDisplay:10.37,2013-03-19 20:29:00,
2013-03-19 16:34:00,25.6,23.3,29.76,ENE,78,3.0,10.0,91,0.00,-SN,OVC,0.61,WeatherDisplay:10.37,2013-03-19 20:34:00,
2013-03-19 16:39:00,25.7,23.4,29.76,ENE,72,1.0,7.0,91,0.00,-SN,OVC,0.61,WeatherDisplay:10.37,2013-03-19 20:39:00,
2013-03-19 16:44:00,25.7,23.4,29.76,ENE,64,2.0,8.0,91,0.00,-SN,OVC,0.61,WeatherDisplay:10.37,2013-03-19 20:44:00,
2013-03-19 16:49:00,25.7,23.4,29.76,ENE,71,0.0,8.0,91,0.00,-SN,OVC,0.61,WeatherDisplay:10.37,2013-03-19 20:49:00,
2013-03-19 16:54:00,25.7,23.7,29.76,ENE,69,2.0,7.0,92,0.01,-SN,OVC,0.62,WeatherDisplay:10.37,2013-03-19 20:54:00,
2013-03-19 16:59:00,25.6,23.3,29.76,ENE,69,3.0,6.0,91,0.00,-SN,OVC,0.62,WeatherDisplay:10.37,2013-03-19 20:59:00,
2013-03-19 17:04:00,25.7,23.7,29.76,ENE,69,2.0,4.0,92,0.00,-SN,OVC,0.62,WeatherDisplay:10.37,2013-03-19 21:04:00,
2013-03-19 17:09:00,25.6,23.6,29.76,ENE,58,1.0,3.0,92,0.00,-SN,OVC,0.62,WeatherDisplay:10.37,2013-03-19 21:09:00,
2013-03-19 17:14:00,25.6,23.6,29.76,ENE,64,1.0,5.0,92,0.00,-SN,OVC,0.62,WeatherDisplay:10.37,2013-03-19 21:14:00,
2013-03-19 17:19:00,25.5,23.5,29.76,ENE,69,2.0,8.0,92,0.00,-SN,OVC,0.62,WeatherDisplay:10.37,2013-03-19 21:19:00,
2013-03-19 17:24:00,25.5,23.5,29.76,ENE,67,2.0,9.0,92,0.00,-SN,OVC,0.62,WeatherDisplay:10.37,2013-03-19 21:24:00,
2013-03-19 17:29:00,25.5,23.5,29.76,East,80,1.0,5.0,92,0.01,-SN,OVC,0.63,WeatherDisplay:10.37,2013-03-19 21:29:00,
2013-03-19 17:39:00,25.4,23.4,29.75,NE,56,1.0,5.0,92,0.01,-SN,OVC,0.64,WeatherDisplay:10.37,2013-03-19 21:39:00,
2013-03-19 17:44:00,25.4,23.4,29.75,ENE,63,2.0,7.0,92,0.00,-SN,OVC,0.64,WeatherDisplay:10.37,2013-03-19 21:44:00,
2013-03-19 17:49:00,25.4,23.4,29.76,ENE,72,1.0,6.0,92,0.00,-SN,OVC,0.64,WeatherDisplay:10.37,2013-03-19 21:49:00,
2013-03-19 17:54:00,25.3,23.3,29.75,ENE,64,3.0,8.0,92,0.00,-SN,OVC,0.64,WeatherDisplay:10.37,2013-03-19 21:54:00,
2013-03-19 17:59:00,25.3,23.3,29.75,ENE,68,2.0,7.0,92,0.01,-SN,OVC,0.65,WeatherDisplay:10.37,2013-03-19 21:59:00,
2013-03-19 18:04:00,25.3,23.3,29.75,ENE,62,1.0,3.0,92,0.00,-SN,OVC,0.65,WeatherDisplay:10.37,2013-03-19 22:04:00,
2013-03-19 18:09:00,25.3,23.3,29.75,ENE,66,1.0,4.0,92,0.01,-SN,OVC,0.65,WeatherDisplay:10.37,2013-03-19 22:09:00,
2013-03-19 18:14:00,25.2,23.2,29.75,ENE,60,3.0,7.0,92,0.00,-SN,OVC,0.65,WeatherDisplay:10.37,2013-03-19 22:14:00,
2013-03-19 18:19:00,25.2,23.2,29.75,ENE,68,2.0,3.0,92,0.00,-SN,OVC,0.65,WeatherDisplay:10.37,2013-03-19 22:19:00,
2013-03-19 18:24:00,25.2,23.2,29.75,ENE,67,1.0,5.0,92,0.00,-SN,OVC,0.65,WeatherDisplay:10.37,2013-03-19 22:24:00,
2013-03-19 18:29:00,25.1,23.1,29.75,NE,53,1.0,7.0,92,0.01,-SN,OVC,0.66,WeatherDisplay:10.37,2013-03-19 22:29:00,
2013-03-19 18:34:00,25.0,23.0,29.75,NE,55,1.0,5.0,92,0.00,-SN,OVC,0.66,WeatherDisplay:10.37,2013-03-19 22:34:00,
2013-03-19 18:39:00,24.9,22.9,29.75,East,84,2.0,6.0,92,0.01,-SN,OVC,0.67,WeatherDisplay:10.37,2013-03-19 22:39:00,
2013-03-19 18:44:00,24.8,22.8,29.75,ENE,64,1.0,6.0,92,0.00,-SN,OVC,0.67,WeatherDisplay:10.37,2013-03-19 22:44:00,
2013-03-19 18:49:00,24.7,22.7,29.75,ENE,57,1.0,3.0,92,0.00,-SN,OVC,0.67,WeatherDisplay:10.37,2013-03-19 22:49:00,
2013-03-19 18:59:00,24.6,22.6,29.75,ENE,66,1.0,5.0,92,0.00,-SN,OVC,0.67,WeatherDisplay:10.37,2013-03-19 22:59:00,
2013-03-19 19:04:00,24.5,22.5,29.75,ENE,77,1.0,3.0,92,0.01,-SN,OVC,0.68,WeatherDisplay:10.37,2013-03-19 23:04:00,
2013-03-19 19:09:00,24.4,22.4,29.75,East,88,2.0,5.0,92,0.00,-SN,OVC,0.68,WeatherDisplay:10.37,2013-03-19 23:09:00,
2013-03-19 19:14:00,24.3,22.3,29.75,East,82,0.0,4.0,92,0.00,-SN,OVC,0.68,WeatherDisplay:10.37,2013-03-19 23:14:00,
2013-03-19 19:19:00,24.3,22.3,29.75,East,79,1.0,4.0,92,0.01,-SN,OVC,0.69,WeatherDisplay:10.37,2013-03-19 23:19:00,
2013-03-19 19:24:00,24.2,22.2,29.75,ENE,75,1.0,4.0,92,0.00,-SN,OVC,0.69,WeatherDisplay:10.37,2013-03-19 23:24:00,
2013-03-19 19:29:00,24.2,22.2,29.75,NE,55,0.0,3.0,92,0.00,-SN,OVC,0.69,WeatherDisplay:10.37,2013-03-19 23:29:00,
2013-03-19 19:34:00,24.2,22.2,29.75,NE,55,1.0,4.0,92,0.01,-SN,OVC,0.69,WeatherDisplay:10.37,2013-03-19 23:34:00,
2013-03-19 19:39:00,24.1,22.1,29.75,NE,55,1.0,4.0,92,0.00,-SN,OVC,0.69,WeatherDisplay:10.37,2013-03-19 23:39:00,
2013-03-19 19:44:00,24.1,22.1,29.75,NE,56,2.0,5.0,92,0.00,-SN,OVC,0.69,WeatherDisplay:10.37,2013-03-19 23:44:00,
2013-03-19 19:49:00,24.1,22.1,29.75,NE,56,1.0,4.0,92,0.01,-SN,OVC,0.70,WeatherDisplay:10.37,2013-03-19 23:49:00,
2013-03-19 19:54:00,24.1,22.1,29.75,NE,52,1.0,3.0,92,0.00,-SN,OVC,0.70,WeatherDisplay:10.37,2013-03-19 23:54:00,
2013-03-19 19:59:00,24.0,22.0,29.75,ENE,66,0.0,5.0,92,0.00,-SN,OVC,0.70,WeatherDisplay:10.37,2013-03-19 23:59:00,
2013-03-19 20:04:00,24.0,22.0,29.75,ENE,70,0.0,3.0,92,0.00,-SN,OVC,0.70,WeatherDisplay:10.37,2013-03-20 00:04:00,
2013-03-19 20:09:00,23.9,21.9,29.75,ENE,62,1.0,6.0,92,0.01,-SN,OVC,0.71,WeatherDisplay:10.37,2013-03-20 00:09:00,
2013-03-19 20:14:00,23.9,21.9,29.75,ENE,59,0.0,3.0,92,0.00,-SN,OVC,0.71,WeatherDisplay:10.37,2013-03-20 00:14:00,
2013-03-19 20:19:00,23.9,21.9,29.75,East,80,1.0,4.0,92,0.01,-SN,OVC,0.72,WeatherDisplay:10.37,2013-03-20 00:19:00,
2013-03-19 20:24:00,23.8,21.8,29.76,ENE,75,2.0,5.0,92,0.00,-SN,OVC,0.72,WeatherDisplay:10.37,2013-03-20 00:24:00,
2013-03-19 20:34:00,23.7,21.7,29.75,ENE,76,1.0,3.0,92,0.01,-SN,OVC,0.72,WeatherDisplay:10.37,2013-03-20 00:34:00,
2013-03-19 20:44:00,23.6,21.6,29.75,ENE,63,1.0,4.0,92,0.00,-SN,OVC,0.73,WeatherDisplay:10.37,2013-03-20 00:44:00,
2013-03-19 20:49:00,23.5,21.5,29.75,ENE,63,1.0,4.0,92,0.00,-SN,OVC,0.73,WeatherDisplay:10.37,2013-03-20 00:49:00,
2013-03-19 20:54:00,23.5,21.5,29.75,NE,55,2.0,5.0,92,0.00,-SN,OVC,0.73,WeatherDisplay:10.37,2013-03-20 00:54:00,
2013-03-19 20:59:00,23.4,21.4,29.75,ENE,61,2.0,5.0,92,0.00,-SN,OVC,0.73,WeatherDisplay:10.37,2013-03-20 00:59:00,
2013-03-19 21:04:00,23.4,21.4,29.75,ENE,61,1.0,3.0,92,0.01,-SN,OVC,0.74,WeatherDisplay:10.37,2013-03-20 01:04:00,
2013-03-19 21:09:00,23.3,21.3,29.75,East,80,1.0,10.0,92,0.00,-SN,OVC,0.74,WeatherDisplay:10.37,2013-03-20 01:09:00,
2013-03-19 21:14:00,23.3,21.3,29.75,East,90,1.0,4.0,92,0.01,-SN,OVC,0.75,WeatherDisplay:10.37,2013-03-20 01:14:00,
2013-03-19 21:19:00,23.3,21.3,29.75,ENE,61,1.0,6.0,92,0.00,-SN,OVC,0.75,WeatherDisplay:10.37,2013-03-20 01:19:00,
2013-03-19 21:24:00,23.2,21.2,29.75,NE,46,0.0,3.0,92,0.00,-SN,OVC,0.75,WeatherDisplay:10.37,2013-03-20 01:24:00,
2013-03-19 21:29:00,23.2,21.2,29.75,NE,44,1.0,3.0,92,0.00,-SN,OVC,0.75,WeatherDisplay:10.37,2013-03-20 01:29:00,
2013-03-19 21:34:00,23.2,21.2,29.75,ENE,64,2.0,5.0,92,0.00,-SN,OVC,0.75,WeatherDisplay:10.37,2013-03-20 01:34:00,
2013-03-19 21:39:00,23.1,21.2,29.75,NE,56,1.0,7.0,92,0.00,-SN,OVC,0.75,WeatherDisplay:10.37,2013-03-20 01:39:00,
2013-03-19 21:44:00,23.1,21.1,29.75,ENE,59,1.0,7.0,92,0.00,-SN,OVC,0.75,WeatherDisplay:10.37,2013-03-20 01:44:00,
2013-03-19 21:49:00,23.1,20.9,29.75,ENE,57,1.0,8.0,91,0.00,-SN,OVC,0.75,WeatherDisplay:10.37,2013-03-20 01:49:00,
2013-03-19 21:54:00,23.0,20.8,29.75,ENE,73,1.0,5.0,91,0.01,-SN,OVC,0.76,WeatherDisplay:10.37,2013-03-20 01:54:00,
2013-03-19 21:59:00,23.0,20.8,29.75,ENE,59,1.0,5.0,91,0.00,-SN,OVC,0.76,WeatherDisplay:10.37,2013-03-20 01:59:00,
2013-03-19 22:04:00,22.9,20.7,29.74,ENE,65,2.0,5.0,91,0.00,-SN,OVC,0.76,WeatherDisplay:10.37,2013-03-20 02:04:00,
2013-03-19 22:09:00,22.9,20.7,29.75,ENE,77,1.0,5.0,91,0.00,-SN,OVC,0.76,WeatherDisplay:10.37,2013-03-20 02:09:00,
2013-03-19 22:14:00,22.8,20.6,29.75,ENE,68,0.0,6.0,91,0.00,-SN,OVC,0.76,WeatherDisplay:10.37,2013-03-20 02:14:00,
2013-03-19 22:19:00,22.8,20.6,29.75,ENE,64,1.0,3.0,91,0.00,-SN,OVC,0.76,WeatherDisplay:10.37,2013-03-20 02:19:00,
2013-03-19 22:24:00,22.7,20.5,29.74,NE,44,1.0,4.0,91,0.00,OVC,OVC,0.76,WeatherDisplay:10.37,2013-03-20 02:24:00,
2013-03-19 22:29:00,22.7,20.5,29.74,ENE,60,0.0,3.0,91,0.01,RA,OVC,0.76,WeatherDisplay:10.37,2013-03-20 02:29:00,
2013-03-19 22:34:00,22.6,20.4,29.74,East,83,2.0,9.0,91,0.00,RA,OVC,0.76,WeatherDisplay:10.37,2013-03-20 02:34:00,
2013-03-19 22:39:00,22.6,20.3,29.74,ENE,68,0.0,4.0,91,0.00,OVC,OVC,0.76,WeatherDisplay:10.37,2013-03-20 02:39:00,
2013-03-19 22:44:00,22.5,20.3,29.74,East,84,0.0,3.0,91,0.00,OVC,OVC,0.76,WeatherDisplay:10.37,2013-03-20 02:44:00,
2013-03-19 22:49:00,22.4,20.2,29.74,ENE,75,2.0,5.0,91,0.01,RA,OVC,0.77,WeatherDisplay:10.37,2013-03-20 02:49:00,
2013-03-19 22:54:00,22.3,20.1,29.74,NE,46,1.0,5.0,91,0.00,RA,OVC,0.77,WeatherDisplay:10.37,2013-03-20 02:54:00,
2013-03-19 22:59:00,22.3,20.1,29.74,NE,52,1.0,4.0,91,0.00,OVC,OVC,0.77,WeatherDisplay:10.37,2013-03-20 02:59:00,
2013-03-19 23:04:00,22.3,20.1,29.74,ENE,61,1.0,3.0,91,0.00,OVC,OVC,0.77,WeatherDisplay:10.37,2013-03-20 03:04:00,
2013-03-19 23:09:00,22.2,20.0,29.74,ENE,73,1.0,4.0,91,0.00,OVC,OVC,0.77,WeatherDisplay:10.37,2013-03-20 03:09:00,
2013-03-19 23:14:00,22.2,19.9,29.73,NE,52,1.0,3.0,91,0.00,-SN,OVC,0.77,WeatherDisplay:10.37,2013-03-20 03:14:00,
2013-03-19 23:19:00,22.1,19.9,29.73,ENE,66,1.0,4.0,91,0.00,-SN,OVC,0.77,WeatherDisplay:10.37,2013-03-20 03:19:00,
2013-03-19 23:24:00,22.1,19.9,29.73,NE,55,1.0,3.0,91,0.00,-SN,OVC,0.77,WeatherDisplay:10.37,2013-03-20 03:24:00,
2013-03-19 23:29:00,22.1,19.9,29.73,NNE,28,0.0,4.0,91,0.00,-SN,OVC,0.77,WeatherDisplay:10.37,2013-03-20 03:29:00,
2013-03-19 23:39:00,22.0,19.8,29.73,NE,39,0.0,2.0,91,0.00,-SN,OVC,0.77,WeatherDisplay:10.37,2013-03-20 03:39:00,
2013-03-19 23:44:00,22.0,19.8,29.73,North,9,1.0,4.0,91,0.00,-SN,OVC,0.77,WeatherDisplay:10.37,2013-03-20 03:44:00,
2013-03-19 23:49:00,22.1,19.8,29.73,NNE,14,0.0,4.0,91,0.00,-SN,OVC,0.77,WeatherDisplay:10.37,2013-03-20 03:49:00,
2013-03-19 23:54:00,22.0,19.8,29.73,NNE,30,1.0,2.0,91,0.00,-SN,OVC,0.77,WeatherDisplay:10.37,2013-03-20 03:54:00,
2013-03-19 23:59:00,22.0,19.8,29.73,NE,48,1.0,4.0,91,0.00,-SN,OVC,0.00,WeatherDisplay:10.37,2013-03-20 03:59:00,